TimeCST,TemperatureF,Dew PointF,Humidity,Sea Level PressureIn,VisibilityMPH,Wind Direction,Wind SpeedMPH,Gust SpeedMPH,PrecipitationIn,Events,Conditions,WindDirDegrees,DateUTC
12:15 AM,31.1,28.4,90,30.26,10.0,WNW,3.5,-,N/A,,Clear,290,2013-11-08 06:15:00
12:35 AM,31.1,28.2,89,30.26,10.0,WNW,3.5,-,N/A,,Clear,290,2013-11-08 06:35:00
12:55 AM,31.1,28.0,88,30.26,10.0,West,4.6,-,N/A,,Clear,280,2013-11-08 06:55:00
1:15 AM,31.1,28.0,88,30.27,10.0,West,3.5,-,N/A,,Clear,280,2013-11-08 07:15:00
1:35 AM,30.9,27.5,87,30.28,10.0,West,4.6,-,N/A,,Clear,280,2013-11-08 07:35:00
1:55 AM,30.7,27.5,88,30.29,10.0,West,5.8,-,N/A,,Clear,270,2013-11-08 07:55:00
2:15 AM,30.7,27.5,88,30.29,10.0,West,3.5,-,N/A,,Clear,280,2013-11-08 08:15:00
2:35 AM,30.7,27.5,88,30.28,10.0,Calm,Calm,-,N/A,,Clear,0,2013-11-08 08:35:00
2:55 AM,30.2,27.3,89,30.28,10.0,Calm,Calm,-,N/A,,Clear,0,2013-11-08 08:55:00
3:15 AM,29.8,27.3,90,30.28,10.0,Calm,Calm,-,N/A,,Clear,0,2013-11-08 09:15:00
3:35 AM,29.3,26.8,90,30.29,10.0,Calm,Calm,-,N/A,,Clear,0,2013-11-08 09:35:00
3:55 AM,29.3,27.0,91,30.29,10.0,Calm,Calm,-,N/A,,Clear,0,2013-11-08 09:55:00
4:15 AM,29.1,26.8,91,30.29,10.0,Calm,Calm,-,N/A,,Clear,0,2013-11-08 10:15:00
4:35 AM,28.9,26.6,91,30.30,10.0,Calm,Calm,-,N/A,,Clear,0,2013-11-08 10:35:00
4:55 AM,28.8,26.4,91,30.31,10.0,Calm,Calm,-,N/A,,Clear,0,2013-11-08 10:55:00
5:15 AM,24.8,22.6,91,30.31,7.0,Calm,Calm,-,N/A,,Clear,0,2013-11-08 11:15:00
5:35 AM,28.4,26.6,93,30.32,10.0,Calm,Calm,-,N/A,,Clear,0,2013-11-08 11:35:00
5:55 AM,25.0,23.0,92,30.32,7.0,Calm,Calm,-,N/A,,Clear,0,2013-11-08 11:55:00
6:15 AM,24.1,22.8,95,30.32,5.0,Calm,Calm,-,N/A,,Clear,0,2013-11-08 12:15:00
6:35 AM,24.3,23.2,96,30.33,4.0,Calm,Calm,-,N/A,,Clear,0,2013-11-08 12:35:00
6:55 AM,25.2,23.9,95,30.34,4.0,Calm,Calm,-,N/A,,Clear,0,2013-11-08 12:55:00
7:15 AM,26.8,25.7,96,30.34,5.0,Calm,Calm,-,N/A,,Clear,0,2013-11-08 13:15:00
7:35 AM,28.2,26.4,93,30.34,7.0,Calm,Calm,-,N/A,,Clear,0,2013-11-08 13:35:00
7:55 AM,29.8,27.3,90,30.35,10.0,Calm,Calm,-,N/A,,Clear,0,2013-11-08 13:55:00
8:15 AM,31.6,28.4,88,30.36,10.0,Calm,Calm,-,N/A,,Clear,0,2013-11-08 14:15:00
8:35 AM,32.9,29.1,86,30.35,10.0,Calm,Calm,-,N/A,,Clear,0,2013-11-08 14:35:00
8:55 AM,34.0,29.1,82,30.34,10.0,Calm,Calm,-,N/A,,Clear,0,2013-11-08 14:55:00
9:15 AM,35.2,29.3,79,30.34,10.0,Calm,Calm,-,N/A,,Clear,0,2013-11-08 15:15:00
9:35 AM,37.0,30.9,79,30.34,10.0,South,4.6,-,N/A,,Clear,170,2013-11-08 15:35:00
9:55 AM,38.3,31.1,75,30.33,10.0,South,3.5,-,N/A,,Clear,170,2013-11-08 15:55:00
10:15 AM,39.4,30.4,70,30.33,10.0,Calm,Calm,-,N/A,,Clear,0,2013-11-08 16:15:00
10:35 AM,40.5,30.2,67,30.32,10.0,SSW,5.8,-,N/A,,Clear,200,2013-11-08 16:35:00
10:55 AM,42.1,31.3,66,30.31,10.0,SSE,3.5,-,N/A,,Clear,160,2013-11-08 16:55:00
11:15 AM,43.0,31.1,63,30.31,10.0,SSW,6.9,-,N/A,,Clear,210,2013-11-08 17:15:00
11:35 AM,43.5,30.7,61,30.29,10.0,SSW,8.1,-,N/A,,Clear,200,2013-11-08 17:35:00
11:55 AM,44.2,30.9,60,30.28,10.0,South,5.8,-,N/A,,Clear,170,2013-11-08 17:55:00
12:15 PM,45.1,31.1,58,30.27,10.0,South,4.6,-,N/A,,Clear,170,2013-11-08 18:15:00
12:35 PM,46.6,30.6,54,30.25,10.0,South,5.8,-,N/A,,Clear,170,2013-11-08 18:35:00
12:55 PM,47.3,30.7,53,30.24,10.0,SSW,4.6,-,N/A,,Clear,210,2013-11-08 18:55:00
1:15 PM,47.8,31.3,53,30.23,10.0,SSW,8.1,-,N/A,,Clear,200,2013-11-08 19:15:00
1:35 PM,46.6,30.4,53,30.23,10.0,South,6.9,-,N/A,,Clear,180,2013-11-08 19:35:00
1:55 PM,47.3,29.7,50,30.22,10.0,SSW,6.9,-,N/A,,Clear,200,2013-11-08 19:55:00
2:15 PM,47.7,27.9,46,30.21,10.0,South,8.1,-,N/A,,Clear,180,2013-11-08 20:15:00
2:35 PM,48.4,28.6,46,30.20,10.0,SSW,5.8,-,N/A,,Clear,200,2013-11-08 20:35:00
2:55 PM,48.2,27.7,45,30.20,10.0,SSW,9.2,-,N/A,,Clear,200,2013-11-08 20:55:00
3:15 PM,47.5,26.4,44,30.19,10.0,South,10.4,16.1,N/A,,Clear,190,2013-11-08 21:15:00
3:35 PM,47.3,27.7,47,30.18,10.0,South,5.8,-,N/A,,Clear,170,2013-11-08 21:35:00
3:55 PM,46.8,29.1,50,30.16,10.0,SSE,5.8,-,N/A,,Clear,150,2013-11-08 21:55:00
4:15 PM,46.6,29.3,51,30.16,10.0,SSE,8.1,-,N/A,,Clear,160,2013-11-08 22:15:00
4:35 PM,45.7,29.8,54,30.16,10.0,South,6.9,-,N/A,,Clear,180,2013-11-08 22:35:00
4:55 PM,45.9,29.5,53,30.14,10.0,South,8.1,20.7,N/A,,Clear,170,2013-11-08 22:55:00
5:15 PM,45.5,30.0,55,30.14,10.0,SSE,6.9,-,N/A,,Clear,160,2013-11-08 23:15:00
5:35 PM,44.6,30.9,59,30.13,10.0,SSE,5.8,-,N/A,,Clear,150,2013-11-08 23:35:00
5:55 PM,44.1,31.3,61,30.12,10.0,SSE,6.9,-,N/A,,Clear,150,2013-11-08 23:55:00
6:15 PM,43.9,31.6,62,30.11,10.0,SSE,8.1,-,N/A,,Clear,150,2013-11-09 00:15:00
6:35 PM,43.3,31.5,63,30.11,10.0,SSE,6.9,-,N/A,,Clear,160,2013-11-09 00:35:00
6:55 PM,43.3,31.8,64,30.09,10.0,SSE,8.1,-,N/A,,Clear,160,2013-11-09 00:55:00
7:15 PM,43.7,31.5,62,30.08,10.0,SSE,10.4,16.1,N/A,,Clear,160,2013-11-09 01:15:00
7:35 PM,44.6,29.8,56,30.07,10.0,SSE,15.0,21.9,N/A,,Clear,160,2013-11-09 01:35:00
7:55 PM,45.1,29.5,54,30.09,10.0,South,12.7,16.1,N/A,,Scattered Clouds,170,2013-11-09 01:55:00
8:15 PM,45.5,29.3,53,30.09,10.0,South,12.7,19.6,N/A,,Scattered Clouds,180,2013-11-09 02:15:00
8:35 PM,45.3,29.5,54,30.08,10.0,South,13.8,20.7,N/A,,Clear,170,2013-11-09 02:35:00
8:55 PM,45.1,30.0,55,30.07,10.0,South,11.5,17.3,N/A,,Scattered Clouds,170,2013-11-09 02:55:00
9:15 PM,44.8,30.7,58,30.07,10.0,South,10.4,-,N/A,,Mostly Cloudy,190,2013-11-09 03:15:00
9:35 PM,44.8,30.9,58,30.07,10.0,South,12.7,20.7,N/A,,Mostly Cloudy,190,2013-11-09 03:35:00
9:55 PM,45.1,30.7,57,30.06,10.0,South,11.5,21.9,N/A,,Mostly Cloudy,180,2013-11-09 03:55:00
10:15 PM,45.5,30.7,56,30.04,10.0,South,16.1,20.7,N/A,,Scattered Clouds,190,2013-11-09 04:15:00
10:35 PM,45.3,30.9,57,30.03,10.0,South,12.7,23.0,N/A,,Scattered Clouds,190,2013-11-09 04:35:00
10:55 PM,45.5,31.1,57,30.01,10.0,South,17.3,24.2,N/A,,Mostly Cloudy,180,2013-11-09 04:55:00
11:15 PM,45.7,30.9,56,30.00,10.0,South,16.1,24.2,N/A,,Mostly Cloudy,180,2013-11-09 05:15:00
11:35 PM,45.9,31.1,56,29.99,10.0,South,17.3,26.5,N/A,,Scattered Clouds,190,2013-11-09 05:35:00
11:55 PM,46.4,31.1,55,29.98,10.0,SSW,16.1,26.5,N/A,,Clear,200,2013-11-09 05:55:00